EW2000 Weather Reports


time (UTC)temp
C
wind
direction
speed
KPH
gust
KPH
rain 1hr
cm
rain 24hr
cm
rain mn
cm
humidity
%
barometer
mb
20260507015012 20 257 0.0 8.0 0.00 0.00 0.00 63 1017.9
20260507014532 20 305 0.0 8.0 0.00 0.00 0.00 63 1018.0
20260507014008 20 254 0.0 11.3 0.00 0.00 0.00 63 1018.0
20260507013508 20 318 0.0 11.3 0.00 0.00 0.00 64 1018.0
20260507013022 20 324 1.6 8.0 0.00 0.00 0.00 64 1017.9
20260507012510 20 321 1.6 8.0 0.00 0.00 0.00 62 1017.9
20260507012012 21 325 0.0 9.7 0.00 0.00 0.00 62 1017.8
20260507011524 21 288 0.0 16.1 0.00 0.00 0.00 63 1017.8
20260507011010 21 291 0.0 16.1 0.00 0.00 0.00 62 1017.8
20260507010513 21 307 1.6 16.1 0.00 0.00 0.00 62 1017.9
20260507010011 21 10 3.2 16.1 0.00 0.00 0.00 60 1017.7
20260507005506 21 311 1.6 16.1 0.00 0.00 0.00 60 1017.7
20260507005003 21 329 4.8 16.1 0.00 0.00 0.00 59 1017.8
20260507004513 21 338 1.6 16.1 0.00 0.00 0.00 60 1017.7
20260507004008 21 302 0.0 9.7 0.00 0.00 0.00 60 1017.6
20260507003509 21 344 1.6 14.5 0.00 0.00 0.00 59 1017.6
20260507003018 22 323 0.0 14.5 0.00 0.00 0.00 58 1017.6
20260507002508 22 302 0.0 17.7 0.00 0.00 0.00 59 1017.5
20260507002009 22 319 4.8 17.7 0.00 0.00 0.00 58 1017.6
20260507001505 22 246 0.0 14.5 0.00 0.00 0.00 59 1017.6
20260507001003 22 321 6.4 14.5 0.00 0.00 0.00 58 1017.5
20260507000504 22 336 1.6 16.1 0.00 0.00 0.00 57 1017.5
20260507000007 22 279 3.2 16.1 0.00 0.00 0.00 58 1017.5
20260506235505 22 352 8.0 14.5 0.00 0.00 0.00 58 1017.5
20260506235003 22 329 0.0 8.0 0.00 0.00 0.00 58 1017.5
20260506234507 22 321 0.0 12.9 0.00 0.00 0.00 57 1017.5
20260506234005 22 253 0.0 16.1 0.00 0.00 0.00 57 1017.6
20260506233507 22 321 6.4 19.3 0.00 0.00 0.00 58 1017.6
20260506233016 22 333 3.2 19.3 0.00 0.00 0.00 58 1017.6
20260506232508 22 309 0.0 16.1 0.00 0.00 0.00 58 1017.5
20260506232007 22 321 4.8 16.1 0.00 0.00 0.00 59 1017.6
20260506231521 22 360 4.8 16.1 0.00 0.00 0.00 58 1017.6
20260506231009 22 51 6.4 19.3 0.00 0.00 0.00 58 1017.7
20260506230510 22 321 1.6 19.3 0.00 0.00 0.00 58 1017.7
20260506230005 22 343 11.3 19.3 0.00 0.00 0.00 56 1017.7
20260506225504 22 5 6.4 16.1 0.00 0.00 0.00 56 1017.7
20260506225004 23 265 1.6 16.1 0.00 0.00 0.00 55 1017.8
20260506224506 23 328 0.0 6.4 0.00 0.00 0.00 55 1017.7
20260506224004 22 286 0.0 8.0 0.00 0.00 0.00 57 1017.8
20260506223504 22 275 0.0 9.7 0.00 0.00 0.00 57 1017.9
20260506223014 22 5 0.0 17.7 0.00 0.00 0.00 57 1017.9
20260506222507 22 324 0.0 17.7 0.00 0.00 0.00 56 1017.9
20260506222009 22 350 3.2 17.7 0.00 0.00 0.00 57 1018.1
20260506221520 22 332 0.0 6.4 0.00 0.00 0.00 58 1018.1
20260506221011 22 296 0.0 6.4 0.00 0.00 0.00 57 1018.1
20260506220509 22 304 0.0 12.9 0.00 0.00 0.00 58 1018.3
20260506220022 21 323 0.0 12.9 0.00 0.00 0.00 59 1018.3
20260506215509 21 317 0.0 14.5 0.00 0.00 0.00 59 1018.4
20260506215005 21 333 0.0 14.5 0.00 0.00 0.00 62 1018.4
20260506214506 21 344 3.2 12.9 0.00 0.00 0.00 59 1018.5
20260506214005 21 313 1.6 8.0 0.00 0.00 0.00 59 1018.5
20260506213503 21 306 0.0 8.0 0.00 0.00 0.00 58 1018.6
20260506213010 21 105 0.0 6.4 0.00 0.00 0.00 57 1018.6
20260506212506 21 345 0.0 12.9 0.00 0.00 0.00 59 1018.7
20260506212010 21 228 6.4 17.7 0.00 0.00 0.00 58 1018.9
20260506211519 21 281 3.2 17.7 0.00 0.00 0.00 60 1018.9
20260506211008 21 5 3.2 17.7 0.00 0.00 0.00 59 1018.9
20260506210508 21 234 4.8 17.7 0.00 0.00 0.00 60 1019.1
20260506210032 20 243 6.4 16.1 0.00 0.00 0.00 60 1019.0
20260506205507 20 352 1.6 9.7 0.00 0.00 0.00 61 1019.1
20260506205009 20 5 1.6 9.7 0.00 0.00 0.00 62 1019.0
20260506204528 20 315 0.0 12.9 0.00 0.00 0.00 62 1019.1
20260506204010 20 331 3.2 14.5 0.00 0.00 0.00 61 1019.2
20260506203504 20 314 3.2 14.5 0.00 0.00 0.00 63 1019.2
20260506203007 20 36 1.6 11.3 0.00 0.00 0.00 63 1019.3
20260506202503 20 338 1.6 9.7 0.00 0.00 0.00 63 1019.4
20260506202009 20 312 1.6 8.0 0.00 0.00 0.00 64 1019.4
20260506201513 20 349 0.0 11.3 0.00 0.00 0.00 63 1019.3
20260506201006 19 299 0.0 11.3 0.00 0.00 0.00 65 1019.3
20260506200508 19 342 0.0 12.9 0.00 0.00 0.00 63 1019.4
20260506200017 19 350 3.2 12.9 0.00 0.00 0.00 64 1019.4
20260506195511 19 276 0.0 11.3 0.00 0.00 0.00 66 1019.4
20260506195013 19 340 1.6 11.3 0.00 0.00 0.00 66 1019.4
20260506194524 18 250 0.0 14.5 0.00 0.00 0.00 67 1019.4
20260506194012 18 350 0.0 14.5 0.00 0.00 0.00 66 1019.5
20260506193509 19 11 4.8 12.9 0.00 0.00 0.00 65 1019.5
20260506193038 19 317 0.0 8.0 0.00 0.00 0.00 69 1019.6
20260506192507 18 329 0.0 3.2 0.00 0.00 0.00 67 1019.7
20260506192004 18 313 0.0 12.9 0.00 0.00 0.00 66 1019.8
20260506191510 18 309 3.2 12.9 0.00 0.00 0.00 67 1019.7
20260506191004 18 249 0.0 8.0 0.00 0.00 0.00 66 1019.8
20260506190508 18 360 0.0 8.0 0.00 0.00 0.00 69 1019.8
20260506190016 18 319 0.0 8.0 0.00 0.00 0.00 68 1019.8
20260506185508 18 239 1.6 8.0 0.00 0.00 0.00 69 1019.9
20260506185008 18 296 0.0 8.0 0.00 0.00 0.00 69 1020.0
20260506184519 18 235 0.0 8.0 0.00 0.00 0.00 68 1019.9
20260506184010 17 256 0.0 9.7 0.00 0.00 0.00 70 1020.1
20260506183510 17 321 0.0 9.7 0.00 0.00 0.00 72 1020.1
20260506183024 17 263 0.0 8.0 0.00 0.00 0.00 70 1020.2
20260506182510 17 338 0.0 12.9 0.00 0.00 0.00 71 1020.2
20260506182014 17 235 0.0 12.9 0.00 0.00 0.00 71 1020.4
20260506181521 17 321 1.6 12.9 0.00 0.00 0.00 72 1020.4
20260506181004 16 316 0.0 6.4 0.00 0.00 0.00 72 1020.4
20260506180505 17 323 0.0 11.3 0.00 0.00 0.00 72 1020.4
20260506180012 17 332 1.6 11.3 0.00 0.00 0.00 71 1020.3
20260506175507 17 243 1.6 8.0 0.00 0.00 0.00 73 1020.3
20260506175008 17 254 0.0 11.3 0.00 0.00 0.00 75 1020.4
20260506174519 16 299 0.0 11.3 0.00 0.00 0.00 75 1020.4
20260506174014 16 346 3.2 11.3 0.00 0.00 0.00 74 1020.4
20260506173512 16 331 0.0 9.7 0.00 0.00 0.00 75 1020.5
20260506173033 16 317 0.0 16.1 0.00 0.00 0.00 74 1020.4
20260506172507 16 321 1.6 16.1 0.00 0.00 0.00 74 1020.5
20260506172010 16 315 0.0 11.3 0.00 0.00 0.00 74 1020.5
20260506171533 16 316 1.6 11.3 0.00 0.00 0.00 75 1020.5
20260506171011 16 340 0.0 6.4 0.00 0.00 0.00 75 1020.5
20260506170510 16 327 0.0 4.8 0.00 0.00 0.00 76 1020.5
20260506170008 16 300 0.0 11.3 0.00 0.00 0.00 76 1020.5
20260506165508 15 248 1.6 11.3 0.00 0.00 0.00 76 1020.5
20260506165008 15 336 0.0 9.7 0.00 0.00 0.00 77 1020.5
20260506164514 15 352 1.6 9.7 0.00 0.00 0.00 75 1020.5
20260506164007 15 328 1.6 9.7 0.00 0.00 0.00 78 1020.5
20260506163507 15 310 0.0 6.4 0.00 0.00 0.00 79 1020.6
20260506163027 15 325 0.0 8.0 0.00 0.00 0.00 79 1020.6
20260506162509 15 246 0.0 8.0 0.00 0.00 0.00 80 1020.6
20260506162010 15 340 3.2 8.0 0.00 0.00 0.00 81 1020.7
20260506161524 14 304 0.0 0.0 0.00 0.00 0.00 80 1020.7
20260506161011 14 302 0.0 0.0 0.00 0.00 0.00 80 1020.6
20260506160510 14 302 0.0 1.6 0.00 0.00 0.00 82 1020.5
20260506160010 14 302 0.0 1.6 0.00 0.00 0.00 82 1020.7
20260506155504 14 265 0.0 4.8 0.00 0.00 0.00 82 1020.7
20260506155006 14 286 0.0 4.8 0.00 0.00 0.00 83 1020.7
20260506154513 13 247 0.0 3.2 0.00 0.00 0.00 83 1020.6
20260506154007 13 312 0.0 3.2 0.00 0.00 0.00 83 1020.7
20260506153506 13 258 0.0 0.0 0.00 0.00 0.00 82 1020.7
20260506153022 13 258 0.0 0.0 0.00 0.00 0.00 83 1020.6
20260506152508 13 255 0.0 0.0 0.00 0.00 0.00 83 1020.6
20260506152010 13 255 0.0 0.0 0.00 0.00 0.00 83 1020.7
20260506151524 13 255 0.0 1.6 0.00 0.00 0.00 83 1020.7
20260506151008 13 255 0.0 1.6 0.00 0.00 0.00 83 1020.6
20260506150503 13 255 0.0 1.6 0.00 0.00 0.00 84 1020.6
20260506150013 13 282 0.0 0.0 0.00 0.00 0.00 84 1020.6
20260506145503 13 297 0.0 0.0 0.00 0.00 0.00 84 1020.7
20260506145008 13 297 0.0 0.0 0.00 0.00 0.00 84 1020.7
20260506144513 13 297 0.0 0.0 0.00 0.00 0.00 85 1020.7
20260506144007 13 297 0.0 0.0 0.00 0.00 0.00 85 1020.6
20260506143507 13 297 0.0 0.0 0.00 0.00 0.00 85 1020.7
20260506143024 13 297 0.0 0.0 0.00 0.00 0.00 85 1020.7
20260506142507 13 297 0.0 0.0 0.00 0.00 0.00 84 1020.7
20260506142008 13 289 0.0 0.0 0.00 0.00 0.00 84 1020.7
20260506141520 13 289 0.0 0.0 0.00 0.00 0.00 85 1020.7
20260506141008 13 243 0.0 0.0 0.00 0.00 0.00 84 1020.6
20260506140507 13 242 0.0 0.0 0.00 0.00 0.00 85 1020.4
20260506140032 13 242 0.0 0.0 0.00 0.00 0.00 85 1020.4
20260506135511 13 242 0.0 0.0 0.00 0.00 0.00 85 1020.3
20260506135006 13 242 0.0 0.0 0.00 0.00 0.00 85 1020.2
20260506134508 13 242 0.0 0.0 0.00 0.00 0.00 85 1020.2
20260506134004 13 242 0.0 0.0 0.00 0.00 0.00 85 1020.0
20260506133510 13 242 0.0 0.0 0.00 0.00 0.00 84 1020.0
20260506133013 13 309 0.0 0.0 0.00 0.00 0.00 84 1020.0
20260506132507 13 309 0.0 0.0 0.00 0.00 0.00 84 1019.9
20260506132009 13 325 0.0 0.0 0.00 0.00 0.00 84 1019.9
20260506131520 13 325 0.0 0.0 0.00 0.00 0.00 84 1019.8
20260506131009 13 325 0.0 0.0 0.00 0.00 0.00 84 1019.8
20260506130509 12 329 0.0 0.0 0.00 0.00 0.00 84 1019.8
20260506130024 13 339 0.0 0.0 0.00 0.00 0.00 84 1019.8
20260506125509 13 339 0.0 0.0 0.00 0.00 0.00 84 1019.7
20260506125008 13 339 0.0 0.0 0.00 0.00 0.00 84 1019.7
20260506124524 12 339 0.0 0.0 0.00 0.00 0.00 84 1019.7
20260506124003 12 339 0.0 0.0 0.00 0.00 0.00 84 1019.7
20260506123508 12 339 0.0 0.0 0.00 0.00 0.00 85 1019.7
20260506123010 12 270 0.0 0.0 0.00 0.00 0.00 85 1019.7
20260506122505 13 270 0.0 0.0 0.00 0.00 0.00 85 1019.6
20260506122009 13 267 0.0 0.0 0.00 0.00 0.00 86 1019.6
20260506121516 13 267 0.0 0.0 0.00 0.00 0.00 86 1019.5
20260506121008 13 267 0.0 0.0 0.00 0.00 0.00 86 1019.5
20260506120509 13 267 0.0 0.0 0.00 0.00 0.00 86 1019.5
20260506120024 13 267 0.0 0.0 0.00 0.00 0.00 86 1019.4
20260506115508 13 267 0.0 0.0 0.00 0.00 0.00 86 1019.4
20260506115007 13 267 0.0 0.0 0.00 0.00 0.00 86 1019.3
20260506114528 13 267 0.0 0.0 0.00 0.00 0.00 85 1019.3
20260506114009 13 267 0.0 0.0 0.00 0.00 0.00 85 1019.2
20260506113508 13 267 0.0 0.0 0.00 0.00 0.00 85 1019.2
20260506113029 13 267 0.0 0.0 0.00 0.00 0.00 85 1019.2
20260506112505 13 267 0.0 0.0 0.00 0.00 0.00 85 1019.1
20260506112006 13 267 0.0 0.0 0.00 0.00 0.00 85 1019.1
20260506111517 13 267 0.0 0.0 0.00 0.00 0.00 85 1019.2
20260506111005 13 267 0.0 0.0 0.00 0.00 0.00 85 1019.1
20260506110511 13 267 0.0 0.0 0.00 0.00 0.00 84 1019.1
20260506110020 13 267 0.0 0.0 0.00 0.00 0.00 84 1019.2
20260506105508 13 267 0.0 0.0 0.00 0.00 0.00 84 1019.1
20260506105007 13 267 0.0 0.0 0.00 0.00 0.00 84 1019.2
20260506104543 13 267 0.0 0.0 0.00 0.00 0.00 84 1019.1
20260506104010 13 267 0.0 0.0 0.00 0.00 0.00 84 1019.1
20260506103510 13 267 0.0 0.0 0.00 0.00 0.00 84 1019.1
20260506103025 13 267 0.0 0.0 0.00 0.00 0.00 84 1019.0
20260506102511 13 267 0.0 0.0 0.00 0.00 0.00 84 1019.1
20260506102007 13 267 0.0 0.0 0.00 0.00 0.00 84 1019.1
20260506101526 13 267 0.0 0.0 0.00 0.00 0.00 84 1019.1
20260506101006 13 267 0.0 0.0 0.00 0.00 0.00 83 1019.1
20260506100506 13 267 0.0 0.0 0.00 0.00 0.00 83 1019.1
20260506100019 13 267 0.0 0.0 0.00 0.00 0.00 84 1019.1
20260506095506 13 267 0.0 0.0 0.00 0.00 0.00 84 1019.1
20260506095010 13 267 0.0 0.0 0.00 0.00 0.00 84 1019.1
20260506094529 13 267 0.0 0.0 0.00 0.00 0.00 84 1019.1
20260506094006 13 267 0.0 0.0 0.00 0.00 0.00 84 1019.1
20260506093511 13 267 0.0 0.0 0.00 0.00 0.00 84 1019.1
20260506093026 13 267 0.0 0.0 0.00 0.00 0.00 84 1019.2
20260506092510 13 267 0.0 0.0 0.00 0.00 0.00 83 1019.2
20260506092010 13 267 0.0 0.0 0.00 0.00 0.00 83 1019.2
20260506091529 13 306 0.0 0.0 0.00 0.00 0.00 83 1019.3
20260506091011 13 306 0.0 0.0 0.00 0.00 0.00 83 1019.2
20260506090513 13 306 0.0 0.0 0.00 0.00 0.00 83 1019.3
20260506090016 13 306 0.0 0.0 0.00 0.00 0.00 83 1019.2
20260506085511 13 306 0.0 0.0 0.00 0.00 0.00 83 1019.1
20260506085007 13 306 0.0 0.0 0.00 0.00 0.00 83 1019.1
20260506084014 13 306 0.0 0.0 0.00 0.00 0.00 83 1019.0
20260506083509 13 306 0.0 0.0 0.00 0.00 0.00 83 1019.0
20260506083036 13 307 0.0 0.0 0.00 0.00 0.00 83 1019.1
20260506082506 13 257 0.0 0.0 0.00 0.00 0.00 83 1019.1
20260506082009 13 257 0.0 0.0 0.00 0.00 0.00 82 1019.1
20260506081526 13 257 0.0 0.0 0.00 0.00 0.00 82 1019.1
20260506081010 13 257 0.0 0.0 0.00 0.00 0.00 82 1019.1
20260506080509 13 257 0.0 0.0 0.00 0.00 0.00 82 1019.0
20260506073512 13 254 0.0 0.0 0.00 0.00 0.00 81 1018.6
20260506073021 13 254 0.0 0.0 0.00 0.00 0.00 81 1018.6
20260506072512 13 254 0.0 0.0 0.00 0.00 0.00 81 1018.6
20260506072011 13 254 0.0 0.0 0.00 0.00 0.00 81 1018.5
20260506071526 13 254 0.0 0.0 0.00 0.00 0.00 80 1018.5
20260506071010 13 254 0.0 0.0 0.00 0.00 0.00 80 1018.5
20260506070510 13 254 0.0 0.0 0.00 0.00 0.00 80 1018.4
20260506062512 13 346 0.0 0.0 0.00 0.00 0.00 81 1018.3
20260506062011 13 346 0.0 0.0 0.00 0.00 0.00 81 1018.3
20260506061504 13 346 0.0 0.0 0.00 0.00 0.00 81 1018.2
20260506061004 13 346 0.0 0.0 0.00 0.00 0.00 81 1018.2
20260506060507 13 346 0.0 0.0 0.00 0.00 0.00 80 1018.1
20260506051009 14 317 0.0 0.0 0.00 0.00 0.00 76 1017.8
20260506050502 14 240 0.0 0.0 0.00 0.00 0.00 76 1017.8
20260506045003 14 271 0.0 0.0 0.00 0.00 0.00 76 1017.7
20260506044510 14 271 0.0 0.0 0.00 0.00 0.00 76 1017.6
20260506044003 15 270 0.0 0.0 0.00 0.00 0.00 77 1017.6
20260506043511 15 270 0.0 0.0 0.00 0.00 0.00 77 1017.6
20260506043017 15 270 0.0 0.0 0.00 0.00 0.00 76 1017.6
20260506042508 15 270 0.0 0.0 0.00 0.00 0.00 76 1017.6
20260506042008 15 270 0.0 0.0 0.00 0.00 0.00 76 1017.4
20260506041517 15 270 0.0 0.0 0.00 0.00 0.00 76 1017.3
20260506041006 15 270 0.0 0.0 0.00 0.00 0.00 76 1017.4
20260506040507 15 294 0.0 0.0 0.00 0.00 0.00 76 1017.3
20260506040040 15 294 0.0 0.0 0.00 0.00 0.00 76 1017.3
20260506035507 15 292 0.0 0.0 0.00 0.00 0.00 76 1017.3
20260506035006 15 292 0.0 0.0 0.00 0.00 0.00 76 1017.2
20260506034508 15 327 0.0 1.6 0.00 0.00 0.00 76 1017.2
20260506034004 15 317 0.0 1.6 0.00 0.00 0.00 76 1016.9
20260506033507 15 257 0.0 0.0 0.00 0.00 0.00 76 1016.8
20260506033013 15 322 0.0 0.0 0.00 0.00 0.00 76 1016.7
20260506032507 15 322 0.0 0.0 0.00 0.00 0.00 76 1016.7
20260506032005 15 283 0.0 0.0 0.00 0.00 0.00 76 1016.7
20260506031515 15 272 0.0 0.0 0.00 0.00 0.00 76 1016.6
20260506031009 15 313 0.0 0.0 0.00 0.00 0.00 76 1016.5
20260506030508 15 313 0.0 0.0 0.00 0.00 0.00 76 1016.5
20260506030023 15 257 0.0 0.0 0.00 0.00 0.00 76 1016.4
20260506025512 15 269 0.0 0.0 0.00 0.00 0.00 76 1016.3
20260506025008 15 269 0.0 0.0 0.00 0.00 0.00 76 1016.2
20260506024534 15 288 0.0 0.0 0.00 0.00 0.00 75 1016.1
20260506024003 15 288 0.0 0.0 0.00 0.00 0.00 75 1016.1
20260506023503 15 287 0.0 0.0 0.00 0.00 0.00 75 1016.1
20260506023008 15 287 0.0 0.0 0.00 0.00 0.00 75 1016.0
20260506022507 15 287 0.0 0.0 0.00 0.00 0.00 74 1016.0
20260506022008 15 287 0.0 0.0 0.00 0.00 0.00 74 1015.9
20260506021518 15 288 0.0 0.0 0.00 0.00 0.00 74 1015.9
20260506021007 15 288 0.0 0.0 0.00 0.00 0.00 73 1015.9
20260506020508 15 341 0.0 0.0 0.00 0.00 0.00 73 1016.0
20260506020020 15 341 0.0 0.0 0.00 0.00 0.00 73 1016.1
20260506015508 15 341 0.0 0.0 0.00 0.00 0.00 73 1016.1